Tracking 19709 objects as of 18-Jun-2019
HD Live streaming from Space Station
objects crossing your sky now

N-1 R/B

Track N-1 R/B now!
10-day predictions


NORAD ID: 10675
Int'l Code: 1978-018B
Perigee: 978.6 km
Apogee: 1,219.7 km
Inclination: 69.4 °
Period: 107.1 minutes
Semi major axis: 7470 km
RCS: 1.3828 m2 (large)
Launch date: February 16, 1978
Source: Japan (JPN)
Launch site: TANEGASHIMA SPACE CENTER (TNSTA)

Note: This is a ROCKET BODY
aabbcc
Your satellite tracking list
Your tracking list is empty




NASA's NSSDC Master Catalog

Two Line Element Set (TLE):
1 10675U 78018B   19168.95217682 -.00000049  00000-0  33717-5 0  9998
2 10675  69.3593 324.3325 0161351 350.0997 142.3490 13.44653512 28601
Source of the keplerian elements: AFSPC